TimeAST,TemperatureF,Dew PointF,Humidity,Sea Level PressureIn,VisibilityMPH,Wind Direction,Wind SpeedMPH,Gust SpeedMPH,PrecipitationIn,Events,Conditions,WindDirDegrees,DateUTC
12:55 AM,61.5,50.9,68,30.07,6.2,North,4.6,-,N/A,,Clear,10,2012-12-30 21:55:00
1:55 AM,61.2,50.7,69,30.06,6.2,Calm,Calm,-,N/A,,Clear,0,2012-12-30 22:55:00
2:55 AM,56.8,49.8,77,30.06,6.2,Calm,Calm,-,N/A,,Clear,0,2012-12-30 23:55:00
3:55 AM,57.7,49.3,73,30.06,6.2,NNW,3.5,-,N/A,,Clear,340,2012-12-31 00:55:00
4:55 AM,55.9,48.9,77,30.07,6.2,Calm,Calm,-,N/A,,Clear,0,2012-12-31 01:55:00
5:55 AM,54.7,48.7,80,30.08,6.2,WNW,4.6,-,N/A,,Clear,300,2012-12-31 02:55:00
6:55 AM,54.7,48.7,80,30.10,5.0,West,4.6,-,N/A,,Haze,280,2012-12-31 03:55:00
7:55 AM,59.4,50.7,73,30.11,6.2,Calm,Calm,-,N/A,,Clear,0,2012-12-31 04:55:00
8:55 AM,64.8,50.2,59,30.12,6.2,WNW,5.8,-,N/A,,Clear,290,2012-12-31 05:55:00
9:55 AM,68.0,48.9,50,30.12,6.2,WNW,6.9,-,N/A,,Clear,290,2012-12-31 06:55:00
10:55 AM,70.3,47.5,44,30.10,6.2,NW,8.1,-,N/A,,Clear,320,2012-12-31 07:55:00
11:55 AM,73.4,46.4,38,30.07,6.2,NW,9.2,-,N/A,,Clear,310,2012-12-31 08:55:00
12:55 PM,73.6,48.0,40,30.04,6.2,WNW,12.7,-,N/A,,Clear,290,2012-12-31 09:55:00
1:55 PM,73.9,49.6,42,30.03,6.2,NNW,13.8,-,N/A,,Clear,330,2012-12-31 10:55:00
2:55 PM,73.9,48.0,40,30.03,6.2,NW,13.8,-,N/A,,Clear,320,2012-12-31 11:55:00
3:55 PM,72.5,47.7,41,30.03,6.2,NNW,15.0,-,N/A,,Clear,330,2012-12-31 12:55:00
4:55 PM,70.0,50.2,49,30.04,6.2,NNW,10.4,-,N/A,,Clear,330,2012-12-31 13:55:00
5:55 PM,67.8,49.3,51,30.07,6.2,NW,9.2,-,N/A,,Clear,310,2012-12-31 14:55:00
6:55 PM,65.7,50.5,58,30.08,6.2,NW,6.9,-,N/A,,Clear,310,2012-12-31 15:55:00
7:55 PM,64.0,51.4,64,30.10,6.2,NW,6.9,-,N/A,,Clear,310,2012-12-31 16:55:00
8:55 PM,62.8,51.4,66,30.10,6.2,WNW,5.8,-,N/A,,Clear,290,2012-12-31 17:55:00
9:55 PM,61.5,51.4,69,30.09,6.2,WNW,5.8,-,N/A,,Clear,300,2012-12-31 18:55:00
10:55 PM,60.6,52.2,74,30.08,6.2,WNW,6.9,-,N/A,,Clear,290,2012-12-31 19:55:00
11:55 PM,60.1,53.6,79,30.07,6.2,NW,6.9,-,N/A,,Clear,320,2012-12-31 20:55:00